This is the latest recevied weather packets stored in our database for station/object K8DJB-1. If no packets are shown the sender has not sent any weather packets the latest 10 day(s).
| Time | Temp. | Humidity | Pressure | Rain* | Wind** | Luminosity | Snow |
|---|---|---|---|---|---|---|---|
| 1778157362 | 6.67° C | 68% | 1013.1 hPa | 0 mm | - | - | - |
| 1778157063 | 6.11° C | 69% | 1013.1 hPa | 0 mm | - | - | - |
| 1778156762 | 6.11° C | 69% | 1013.1 hPa | 0 mm | - | - | - |
| 1778156463 | 5.56° C | 71% | 1013.1 hPa | 0 mm | - | - | - |
| 1778156162 | 5.56° C | 72% | 1013.1 hPa | 0 mm | - | - | - |
| 1778155862 | 5° C | 73% | 1013.1 hPa | 0 mm | - | - | - |
| 1778155562 | 5° C | 75% | 1013.1 hPa | 0 mm | - | - | - |
| 1778155262 | 4.44° C | 76% | 1012.9 hPa | 0 mm | - | - | - |
| 1778154962 | 4.44° C | 76% | 1012.9 hPa | 0 mm | - | - | - |
| 1778154663 | 3.89° C | 77% | 1012.9 hPa | 0 mm | - | - | - |
| 1778154362 | 3.89° C | 77% | 1012.8 hPa | 0 mm | - | - | - |
| 1778154063 | 3.89° C | 77% | 1012.8 hPa | 0 mm | - | - | - |
| 1778153762 | 3.33° C | 77% | 1012.8 hPa | 0 mm | - | - | - |
| 1778153349 | 3.33° C | 77% | 1012.6 hPa | 0 mm | - | - | - |
| 1778153049 | 3.33° C | 77% | 1012.5 hPa | 0 mm | - | - | - |
| 1778152751 | 3.33° C | 77% | 1012.5 hPa | 0 mm | - | - | - |
| 1778152449 | 2.78° C | 77% | 1012.5 hPa | 0 mm | - | - | - |
| 1778152149 | 2.78° C | 76% | 1012.4 hPa | 0 mm | - | - | - |
| 1778151849 | 2.78° C | 76% | 1012.4 hPa | 0 mm | - | - | - |
| 1778151249 | 2.78° C | 76% | 1012.2 hPa | 0 mm | - | - | - |
| 1778150949 | 2.78° C | 76% | 1012.2 hPa | 0 mm | - | - | - |
| 1778150649 | 2.78° C | 76% | 1012.3 hPa | 0 mm | - | - | - |
| 1778150349 | 2.78° C | 76% | 1012.3 hPa | 0 mm | - | - | - |
| 1778150049 | 3.33° C | 76% | 1012.3 hPa | 0 mm | - | - | - |
| 1778149751 | 3.33° C | 76% | 1012.2 hPa | 0 mm | - | - | - |
* Rain latest hour (hover to see other rain measurements)
** Current wind speed in m/s (hover to see current wind gust speed)